Theta_e
350 351 352 353 353 353 354 355 352 350 349 346 339 340 343 346 346 346 346 343 343 343 338 343 345 346 345 345 345 345 345 343 340 336 337 336 336 342 343 343 343 344 344
351 352 354 354 354 354 355 354 351 349 346 340 339 340 340 345 345 346 346 346 347 346 347 347 346 343 343 342 343 343 343 343 341 339 337 338 337 338 339 341 341 342 343
353 357 357 355 354 354 354 351 349 346 342 339 340 341 341 341 345 346 347 345 346 346 346 345 344 343 343 344 344 343 343 342 342 342 339 336 339 337 339 339 341 343 343
356 357 356 355 354 354 353 351 349 345 341 340 342 342 345 346 346 345 345 345 344 343 342 341 342 343 343 343 343 343 343 343 342 341 342 338 338 339 339 339 339 342 344
358 358 356 355 356 355 353 351 348 342 339 341 341 342 347 345 344 344 345 345 343 341 341 342 342 342 343 344 344 343 343 344 343 341 340 340 341 341 339 340 338 338 342
359 354 357 356 356 354 352 349 347 344 343 342 342 349 347 346 344 344 344 342 341 339 340 342 342 343 343 344 343 342 343 344 342 342 341 341 340 340 339 338 339 338 340
344 336 332 352 354 353 351 348 345 344 342 342 352 348 347 346 343 343 341 340 339 339 340 342 343 343 344 344 344 343 342 341 342 342 342 341 341 340 340 339 338 337 338
335 337 337 350 354 352 350 346 344 344 349 350 348 347 345 343 342 341 339 338 338 338 338 340 342 343 344 344 344 343 342 341 341 341 341 341 341 341 340 339 338 339 337
340 336 345 349 353 352 351 345 346 349 349 349 347 345 343 342 341 339 338 337 338 337 337 337 340 342 342 342 342 342 341 342 342 341 341 341 340 340 341 340 339 339 339
341 349 346 347 352 353 351 346 348 349 351 348 346 345 342 342 340 339 338 336 337 336 336 336 337 338 339 339 340 340 340 341 341 341 341 341 342 341 340 341 341 340 338
351 348 346 346 349 350 349 347 349 348 348 347 346 344 342 341 339 339 337 335 336 335 335 335 334 334 336 336 336 336 336 336 336 337 339 339 340 341 341 341 341 339 337
349 348 346 345 346 347 348 347 346 344 342 347 346 345 343 340 339 337 336 335 335 334 334 333 332 332 332 333 333 334 333 334 333 333 334 335 336 338 338 339 339 340 339
349 348 346 344 345 345 347 347 344 338 339 347 346 345 342 341 338 337 336 335 334 334 333 332 331 330 330 330 329 330 329 330 331 331 331 332 333 334 334 336 337 337 338
345 347 345 343 344 345 346 345 339 334 340 347 347 345 343 341 338 338 337 335 335 334 333 332 331 330 329 328 327 326 327 328 329 329 328 329 331 332 332 332 333 334 334
337 341 345 342 343 343 344 343 337 335 343 347 346 345 343 341 338 338 337 336 335 334 332 331 331 330 329 328 327 325 324 324 323 323 324 326 329 330 331 330 330 331 330
342 345 345 343 341 338 337 337 334 337 345 348 346 345 344 341 339 338 337 335 336 333 332 330 330 329 329 328 328 326 325 325 324 321 317 323 325 327 329 329 328 328 328
341 346 336 344 342 339 336 336 334 338 345 347 346 345 346 342 340 338 337 336 334 333 330 329 329 328 328 328 327 327 325 324 321 318 315 319 319 320 323 326 326 325 325
340 342 334 345 344 338 342 338 340 345 347 347 347 346 345 342 341 339 336 336 334 333 330 327 327 327 328 327 326 325 325 322 319 319 318 314 312 312 313 316 319 321 321
338 344 345 345 344 345 343 343 345 345 345 343 341 340 343 343 341 339 337 335 333 331 328 326 325 325 326 327 325 324 323 321 319 318 319 319 317 315 316 312 311 314 315
343 342 344 345 345 344 343 344 344 342 337 339 335 334 334 337 340 340 338 335 332 330 327 324 322 322 322 323 325 323 320 319 316 316 318 319 320 318 318 317 312 310 309
338 341 341 339 338 339 340 340 337 332 334 333 331 330 333 335 339 341 339 335 333 329 326 325 322 320 319 320 324 324 320 318 316 313 313 314 316 318 320 318 315 314 314
334 335 334 333 335 335 334 331 329 329 328 328 328 330 333 335 338 340 336 334 331 328 324 321 319 318 317 319 321 323 320 318 316 314 312 310 311 310 307 307 306 308 309
334 333 332 330 331 332 330 326 323 324 324 325 327 328 330 332 336 337 335 332 328 325 321 320 318 317 318 318 316 319 317 316 313 307 305 305 306 306 307 305 306 307 309
331 332 331 328 326 327 326 325 322 322 322 321 323 325 327 328 330 330 330 329 325 322 320 319 317 315 313 311 313 314 314 311 306 307 306 305 305 306 307 307 307 306 305
329 330 328 326 324 324 323 323 321 321 319 320 321 322 323 323 324 324 322 323 322 322 321 319 317 315 312 310 310 310 309 308 306 306 308 309 309 309 308 308 307 306 305
328 327 327 326 325 324 323 322 321 320 319 319 320 321 321 320 320 320 318 318 318 318 318 317 317 316 313 311 312 311 310 307 306 307 307 309 307 307 306 306 307 306 304
Wind_Speed
5 16 19 20 20 20 21 21 12 12 14 11 11 7 7 0 2 3 5 6 6 7 8 9 9 9 10 12 12 14 18 18 17 10 11 17 18 17 18 18 20 20 19
7 9 16 16 19 21 21 18 11 13 12 12 6 3 3 3 6 7 4 2 3 2 4 7 9 8 10 10 11 11 13 13 15 7 4 1 2 10 15 17 17 19 19
12 8 12 19 21 24 21 12 9 15 15 8 11 9 7 4 3 5 3 3 3 3 4 7 10 10 8 10 10 11 13 13 12 18 5 2 3 2 4 10 10 13 18
9 9 14 17 23 24 16 13 13 15 14 12 11 6 2 1 3 5 7 9 6 5 6 8 8 8 8 9 9 9 12 13 12 14 19 5 3 2 3 2 8 10 14
16 13 14 21 22 22 18 15 14 15 12 9 5 3 5 7 8 7 7 6 6 7 8 7 7 8 7 8 9 9 10 12 12 12 8 18 6 3 3 3 5 11 7
10 11 9 21 21 21 19 17 15 15 12 9 3 4 5 7 7 7 7 6 8 10 9 9 7 7 7 6 5 3 7 9 11 13 13 9 6 7 8 1 0 3 6
6 4 19 10 19 23 20 16 16 15 11 9 7 6 5 6 6 6 7 7 10 12 11 11 10 7 5 4 4 1 2 5 6 9 12 14 11 5 10 7 3 2 2
6 4 16 12 21 23 20 18 16 15 12 7 9 8 9 8 7 7 7 9 11 11 11 12 12 9 5 4 4 5 4 3 3 4 5 6 7 7 8 5 8 2 3
5 6 7 16 20 22 21 19 19 15 11 13 11 9 9 7 8 8 7 8 8 8 8 9 10 11 10 8 8 10 11 8 5 4 5 4 4 6 8 10 13 8 3
5 6 10 17 20 21 21 21 20 16 15 13 10 9 8 9 8 8 8 7 9 7 9 12 11 10 12 12 14 14 15 16 15 12 8 6 4 6 8 9 10 13 11
8 6 9 16 22 20 22 22 19 14 17 13 13 10 10 10 9 10 8 8 8 7 9 11 13 13 12 12 14 15 14 14 14 14 14 13 9 7 4 5 8 11 13
10 11 11 16 22 21 21 21 18 17 16 13 13 12 12 11 10 10 9 6 8 9 10 12 14 15 15 14 14 14 14 14 16 15 14 14 11 11 9 7 6 8 13
9 9 14 15 19 20 21 21 22 25 19 12 12 14 13 13 11 11 8 7 6 9 10 11 14 17 16 17 17 16 17 18 16 15 16 16 14 14 11 9 6 5 7
5 9 9 12 20 21 23 24 24 23 20 14 13 15 16 14 12 11 8 6 6 7 9 9 12 14 15 16 16 17 17 19 20 19 18 16 15 15 14 13 11 10 11
5 5 7 6 16 19 20 18 24 24 21 18 18 19 18 14 12 11 9 6 6 7 7 8 11 11 11 12 13 15 18 19 19 19 18 18 17 15 14 15 15 12 12
7 9 9 10 9 10 22 22 26 22 18 18 20 20 16 15 14 12 12 9 9 8 7 8 9 9 8 9 8 8 11 13 14 15 14 15 16 16 15 14 14 14 13
12 12 5 16 16 9 12 17 23 17 14 17 16 15 18 21 18 15 13 12 12 9 7 9 8 8 7 7 7 7 8 11 13 13 16 15 15 14 14 14 14 14 11
8 11 8 13 28 25 18 12 11 10 12 14 10 16 21 23 22 18 14 13 12 9 6 8 8 8 8 7 7 7 8 9 11 12 12 14 15 16 15 15 17 17 17
4 7 4 11 16 24 27 27 24 13 9 6 5 6 11 17 23 20 18 15 14 10 8 7 7 8 7 5 5 3 5 7 8 9 10 8 8 11 11 12 15 15 15
14 6 11 17 22 26 32 27 24 20 9 7 5 6 6 10 18 23 20 17 16 13 12 9 6 6 5 3 5 3 4 6 6 7 6 7 6 4 6 6 8 11 10
10 13 15 15 11 18 17 23 14 13 17 10 7 4 3 6 10 18 21 19 16 15 13 10 7 4 4 4 5 7 4 4 4 5 5 5 4 5 4 3 3 3 3
16 13 18 14 9 6 10 16 14 12 13 12 10 7 7 6 12 16 20 18 17 16 12 9 8 5 4 4 3 6 6 4 1 3 6 6 6 8 8 6 6 4 5
13 14 17 15 9 7 6 12 13 12 11 12 11 10 8 8 11 17 19 19 17 16 12 7 5 5 3 3 5 7 8 4 2 6 7 6 6 7 7 7 5 6 4
9 10 12 13 10 8 8 12 12 12 13 13 13 13 11 11 11 13 16 17 16 14 11 9 7 5 5 5 6 6 5 6 6 6 4 5 6 5 5 4 5 5 5
7 7 7 10 11 12 13 10 11 12 12 11 10 11 11 12 13 13 13 12 11 10 9 7 7 8 7 7 6 6 5 5 5 5 5 3 2 1 2 1 1 1 2
11 11 10 10 9 10 8 7 7 6 11 12 11 12 12 12 12 12 13 11 10 8 7 7 5 6 6 7 5 4 4 5 5 5 3 3 6 5 3 1 2 3 1
Wind_Direction
169 181 196 199 194 189 191 188 195 195 198 201 167 183 223 97 74 324 316 274 274 266 272 250 267 270 270 270 264 263 260 264 252 245 258 260 258 251 243 251 250 253 259
139 137 157 164 174 174 180 184 190 181 170 171 174 231 250 33 348 330 332 340 311 299 279 270 273 273 279 273 266 257 257 255 244 207 208 323 301 246 251 247 261 258 259
160 146 140 147 162 167 171 169 162 161 167 159 125 126 129 273 326 36 70 23 24 341 325 302 299 291 279 273 270 262 247 243 242 218 183 134 212 331 275 246 268 264 260
145 151 143 146 158 165 166 163 155 165 162 154 141 148 129 122 78 61 93 89 61 19 344 321 307 301 299 296 287 264 248 241 235 222 226 232 157 171 334 7 33 344 276
158 158 153 152 161 165 164 162 159 159 160 163 144 138 106 106 113 112 119 76 37 7 347 332 324 313 310 308 295 275 241 233 234 216 203 215 213 193 32 298 331 3 358
42 34 126 151 151 156 159 159 160 159 158 157 143 113 119 115 101 92 79 52 29 15 8 355 336 321 321 328 317 295 226 226 231 233 223 197 183 204 207 210 282 24 352
54 37 285 156 151 158 160 154 157 155 161 157 149 135 121 121 105 82 69 66 44 33 26 14 3 347 352 17 41 24 231 230 234 224 225 228 222 180 205 182 118 114 321
178 186 226 196 160 159 161 153 158 153 151 157 148 135 127 125 108 96 88 72 55 40 31 26 26 32 47 50 62 82 68 77 142 152 170 187 202 212 206 173 152 135 231
301 170 223 180 158 165 166 155 157 153 157 155 151 152 138 136 124 113 101 81 74 49 44 33 41 51 58 66 80 77 69 83 99 127 152 157 183 190 188 202 194 158 142
217 223 182 169 160 172 168 164 165 163 159 164 159 162 153 152 130 124 112 91 85 71 56 52 57 57 61 67 74 73 71 74 76 80 93 112 151 184 198 210 195 181 152
180 160 189 165 167 176 173 164 168 173 155 170 157 175 164 154 146 126 107 85 89 71 63 61 59 62 64 64 71 71 69 72 72 70 73 73 76 97 142 192 198 187 179
165 148 176 175 165 175 168 156 174 160 171 169 165 191 181 169 150 128 120 106 91 73 70 68 65 63 67 71 69 71 69 69 65 62 65 64 69 72 73 82 114 169 185
154 157 163 174 170 171 168 157 174 178 167 170 187 198 197 187 157 137 138 128 110 85 74 73 70 70 68 72 74 75 75 73 71 70 68 62 65 65 66 74 85 93 159
317 153 162 169 172 184 182 171 186 188 173 181 204 205 210 197 166 152 142 142 124 103 87 84 78 75 75 73 71 70 75 77 75 74 71 67 64 65 65 72 77 99 130
233 256 162 178 166 196 198 180 195 192 185 185 197 211 215 197 179 162 158 156 148 127 104 101 92 80 79 79 73 76 80 78 75 69 68 66 64 66 67 69 73 91 107
295 262 151 145 66 244 205 183 190 200 200 198 201 214 217 198 188 179 173 178 165 152 123 119 109 96 80 84 81 80 82 70 64 63 63 70 67 66 70 75 79 81 100
297 266 201 133 128 240 265 192 197 211 213 211 210 212 242 205 194 188 183 182 169 156 135 127 119 107 99 97 85 89 89 79 76 70 67 74 70 68 74 82 87 86 84
305 264 281 144 165 182 219 193 175 181 199 217 220 218 214 202 195 196 188 183 173 159 148 138 128 111 105 106 97 91 96 95 86 77 75 73 75 74 76 85 89 87 84
262 264 254 168 169 168 170 168 159 164 165 176 188 180 195 203 200 200 193 186 173 163 148 145 140 120 113 136 117 84 95 100 89 84 74 72 83 83 70 78 91 93 91
304 188 173 151 161 163 158 155 164 168 153 198 221 233 215 215 205 205 197 185 182 166 155 146 139 134 120 139 186 165 113 110 93 94 86 71 69 101 72 70 98 100 104
53 105 131 125 146 168 169 158 177 172 180 176 193 201 192 233 218 207 193 178 180 173 160 145 137 136 126 87 187 195 177 128 99 105 93 76 70 71 81 54 62 90 130
73 99 100 106 137 179 179 141 148 157 158 153 156 155 150 185 183 186 173 174 177 168 158 149 134 127 121 116 100 202 201 161 93 102 102 89 81 93 84 73 48 0 253
89 103 109 109 108 112 128 131 132 140 152 146 144 136 141 146 157 163 166 171 175 169 156 148 130 128 123 121 117 112 154 149 128 117 111 96 108 114 83 64 63 50 81
103 119 118 111 102 102 118 139 138 151 154 156 150 144 148 134 137 150 165 171 164 158 156 154 145 138 126 124 127 134 140 126 132 128 106 102 108 99 86 64 57 78 90
119 113 111 114 117 117 126 142 157 156 149 148 153 142 139 129 127 128 130 140 148 159 163 169 167 165 159 148 141 126 131 133 124 114 109 105 109 228 240 293 21 80 156
145 138 134 125 127 132 141 151 150 155 154 167 157 149 149 139 136 135 127 128 131 137 143 146 156 167 167 160 154 148 140 133 124 105 69 119 121 98 77 32 275 261 226